Regional Weather Roundup
Issued by NWS Newport/Morehead, NC

Current Version | Previous Version | Graphics & Text | Print | Product List | Glossary On
Versions: 1 2 3 4 5 6 7 8 9 10 11 12 13 14 15 16 17 18 19 20 21 22 23 24 25 26 27 28 29 30 31 32 33 34 35 36 37 38 39 40 41 42 43 44 45 46 47 48 49 50
000 ASUS42 KMHX 301513 RWRMHX WEATHER ROUNDUP FOR EASTERN NORTH CAROLINA NATIONAL WEATHER SERVICE NEWPORT/MOREHEAD CITY NC 1100 AM EDT SAT APR 30 2016 NOTE: "FAIR" INDICATES FEW OR NO CLOUDS BELOW 12,000 FEET WITH NO SIGNIFICANT WEATHER AND/OR OBSTRUCTIONS TO VISIBILITY NCZ015>017-031-032-045>047-102-103-301600- NORTH COAST CITY SKY/WX TMP DP RH WIND PRES REMARKS EDENTON CLOUDY 58 55 90 NE9 30.16F ELIZABETH CITY CLOUDY 56 52 86 NE15 30.17S KITTY HAWK CLOUDY 56 52 84 N9 30.15F MANTEO NOT AVBL $$ NCZ045>047-081-094-103-104-301600- CENTRAL COAST CITY SKY/WX TMP DP RH WIND PRES REMARKS FRISCO CLOUDY 61 54 77 NE13G20 30.13S SWANQUARTER NOT AVBL $$ NCZ095-097-098-100-101-301600- SOUTHERN COAST CITY SKY/WX TMP DP RH WIND PRES REMARKS BEAUFORT CLOUDY 63 56 78 VRB5 30.13S CEDAR ISLAND NOT AVBL JACKSONVILLE PTSUNNY 68 57 68 E8 30.12S PINEY ISLAND NOT AVBL WILMINGTON CLOUDY 64 59 83 E13G20 30.11S $$ NCZ011>013-027>030-043-044-078>080-089-090>093-098-301600- COASTAL PLAIN CITY SKY/WX TMP DP RH WIND PRES REMARKS AHOSKIE CLOUDY 56 52 88 NE7 30.16S CLINTON CLOUDY 62 59 91 E7 30.14R FOG ELIZABETHTOWN CLOUDY 66 60 80 E6 30.11R GOLDSBORO CLOUDY 66 63 88 E6 30.12R GREENVILLE CLOUDY 59 55 88 E8 30.16R HAVELOCK CLOUDY 62 57 83 NE7 30.15R KENANSVILLE PTSUNNY 66 57 71 CALM 30.13S KINSTON CLOUDY 63 55 77 E8 30.15R NEW BERN CLOUDY 61 55 81 E6 30.15S RICHLANDS MOSUNNY 69 57 65 E7 30.13R ROCKY MOUNT CLOUDY 60 54 80 NE6 30.15R WASHINGTON CLOUDY 58 54 86 E7 30.15S WHITEVILLE CLOUDY 68 62 82 E5 30.10R HAZE $$ AMZ130-135-150-152-154-156-158-170-250-252-270-ANZ085-086-088-633-658-670-301600- MARINE OBSERVATIONS STATION/POSITION TIME TEMP WIND PRES WAVE SWELL AIR SEA DIR/SP/G HT/PER HT/PER (UTC) (F) (DEG/KT/KT) (MB) (FT/S) (FT/S) CHESAPEAKE LIGHT 1500 52 30/ 15/ 16 1022.2 64 E VA BEACH 1450 52 53 10/ 16/ 17 1020.7 6/10 5/10 DUCK 1400 53 67 10/ 11/ 14 1021.0 2 E DUCK 1411 58 N/A 5/10 2/11 OREGON INLET 1400 54 62 10/ 8/ 13 1021.1 13E OREGON INLT 1500 54 N/A 6/11 5/11 HATTERAS CG 1400 60 69 30/ 10/ 18 1020.0 DIAMOND BUOY 1450 59 74 30/ 14/ 17 1020.2 5/10 3/10 CAPE LOOKOUT 1500 62 50/ 7/ 10 1020.1 BEAUFORT LAB 1400 61 67 50/ 6/ 7 1019.6 30 SE NEW RVR IN 1425 68 N/A 3/ 4 27 SE WRIGHTSVLE 1408 65 69 70/ 17/ 21 1018.6 5 SE WRIGHTSVLE 1408 65 68 80/ 17/ 23 1019.8 225 S CAPE HAT 1450 70 71 40/ 14/ 16 1018.3 3/10 2/10 41 SE CHARLESTON 1450 74 73 90/ 8/ 10 1017.0 2/ 9 2/ 9 $$

USA.gov is the U.S. government's official web portal to all federal, state and local government web resources and services.